Hourly Weather Allen Park

Today, 27 February, Saturday

Time Temperature Precipitation Wind Pressure Humidity
00:00 +1°C° 0 mm 2 mps 743 mmHg 87%
01:00 0°C° 0.6 mm 3 mps 743 mmHg 90%
02:00 +1°C° 0.6 mm 3 mps 742 mmHg 94%
03:00 0°C° 0.6 mm 4 mps 741 mmHg 98%
04:00 +1°C° 0.6 mm 4 mps 741 mmHg 97%
05:00 +1°C° 0.6 mm 4 mps 742 mmHg 96%
06:00 +1°C° 0 mm 3 mps 743 mmHg 91%
07:00 +1°C° 0 mm 3 mps 743 mmHg 89%
08:00 +1°C° 0 mm 4 mps 744 mmHg 88%
09:00 +1°C° 0 mm 4 mps 745 mmHg 86%
10:00 +3°C° 0 mm 4 mps 745 mmHg 82%
11:00 +4°C° 0 mm 3 mps 746 mmHg 79%
12:00 +5°C° 0 mm 3 mps 747 mmHg 75%
13:00 +5°C° 0 mm 3 mps 747 mmHg 75%
14:00 +5°C° 0 mm 3 mps 748 mmHg 75%
15:00 +7°C° 0 mm 2 mps 748 mmHg 75%
16:00 +5°C° 0 mm 2 mps 748 mmHg 80%
17:00 +4°C° 0 mm 2 mps 749 mmHg 86%
18:00 +3°C° 0 mm 2 mps 749 mmHg 91%
19:00 +2°C° 0 mm 2 mps 749 mmHg 92%
20:00 +2°C° 0 mm 2 mps 749 mmHg 93%
21:00 +2°C° 0 mm 2 mps 750 mmHg 94%
22:00 +1°C° 0 mm 2 mps 749 mmHg 94%
23:00 +1°C° 0 mm 2 mps 749 mmHg 94%

Tomorrow, 28 February, Sunday

Time Temperature Precipitation Wind Pressure Humidity
00:00 +1°C° 0 mm 2 mps 748 mmHg 95%
01:00 +1°C° 0 mm 2 mps 747 mmHg 94%
02:00 +1°C° 0 mm 2 mps 747 mmHg 94%
03:00 +1°C° 0 mm 2 mps 746 mmHg 94%
04:00 0°C° 0 mm 3 mps 745 mmHg 94%
05:00 +1°C° 0 mm 3 mps 745 mmHg 93%
06:00 +1°C° 0 mm 3 mps 744 mmHg 93%
07:00 +1°C° 0.1 mm 3 mps 744 mmHg 95%
08:00 +2°C° 0.1 mm 3 mps 743 mmHg 96%
09:00 +2°C° 0.1 mm 3 mps 742 mmHg 97%
10:00 +2°C° 0.2 mm 3 mps 742 mmHg 98%
11:00 +3°C° 0.2 mm 3 mps 741 mmHg 98%
12:00 +4°C° 0.2 mm 2 mps 740 mmHg 99%
13:00 +5°C° 0 mm 3 mps 739 mmHg 98%
14:00 +7°C° 0 mm 4 mps 739 mmHg 96%
15:00 +8°C° 0 mm 4 mps 738 mmHg 95%
16:00 +8°C° 0.3 mm 5 mps 738 mmHg 95%
17:00 +9°C° 0.3 mm 5 mps 738 mmHg 95%
18:00 +9°C° 0.3 mm 5 mps 738 mmHg 94%
19:00 +7°C° 0.3 mm 5 mps 738 mmHg 89%
20:00 +5°C° 0.3 mm 6 mps 738 mmHg 85%
21:00 +3°C° 0.3 mm 6 mps 739 mmHg 80%
22:00 +2°C° 0 mm 6 mps 739 mmHg 79%
23:00 +2°C° 0 mm 6 mps 740 mmHg 79%

Day after tomorrow, 1 March, Monday

Time Temperature Precipitation Wind Pressure Humidity
00:00 +1°C° 0 mm 6 mps 741 mmHg 78%
01:00 0°C° 0 mm 5 mps 741 mmHg 77%
02:00 0°C° 0 mm 5 mps 742 mmHg 76%
03:00 -1°C° 0 mm 4 mps 742 mmHg 75%
04:00 -1°C° 0 mm 4 mps 743 mmHg 75%
05:00 -2°C° 0 mm 4 mps 744 mmHg 74%
06:00 -2°C° 0 mm 4 mps 744 mmHg 74%
07:00 -2°C° 0 mm 4 mps 745 mmHg 69%
08:00 -2°C° 0 mm 4 mps 745 mmHg 64%
09:00 -2°C° 0 mm 5 mps 746 mmHg 59%
10:00 -1°C° 0 mm 5 mps 746 mmHg 56%
11:00 0°C° 0 mm 5 mps 746 mmHg 53%
12:00 0°C° 0 mm 5 mps 746 mmHg 50%
13:00 -1°C° 0 mm 6 mps 747 mmHg 50%
14:00 -1°C° 0 mm 6 mps 747 mmHg 51%
15:00 -2°C° 0 mm 7 mps 748 mmHg 52%
16:00 -3°C° 0 mm 7 mps 749 mmHg 52%
17:00 -4°C° 0 mm 6 mps 750 mmHg 52%
18:00 -5°C° 0 mm 6 mps 751 mmHg 53%
19:00 -6°C° 0 mm 6 mps 752 mmHg 49%
20:00 -6°C° 0 mm 5 mps 753 mmHg 45%
21:00 -7°C° 0 mm 5 mps 753 mmHg 41%
22:00 -8°C° 0 mm 5 mps 754 mmHg 42%
23:00 -8°C° 0 mm 4 mps 754 mmHg 43%

2 March, Tuesday

Time Temperature Precipitation Wind Pressure Humidity
00:00 -8°C° 0 mm 4 mps 754 mmHg 43%
01:00 -8°C° 0 mm 4 mps 755 mmHg 45%
02:00 -8°C° 0 mm 3 mps 755 mmHg 46%
03:00 -8°C° 0 mm 3 mps 755 mmHg 47%
04:00 -7°C° 0 mm 2 mps 755 mmHg 48%
05:00 -7°C° 0 mm 2 mps 755 mmHg 48%
06:00 -6°C° 0 mm 1 mps 755 mmHg 49%
07:00 -6°C° 0 mm 2 mps 755 mmHg 46%
08:00 -6°C° 0 mm 2 mps 756 mmHg 43%
09:00 -5°C° 0 mm 2 mps 756 mmHg 40%
10:00 -3°C° 0 mm 2 mps 755 mmHg 37%
11:00 -2°C° 0 mm 3 mps 754 mmHg 34%
12:00 -1°C° 0 mm 3 mps 754 mmHg 31%
13:00 0°C° 0 mm 3 mps 753 mmHg 32%
14:00 -1°C° 0 mm 4 mps 752 mmHg 33%
15:00 0°C° 0 mm 4 mps 751 mmHg 34%
16:00 -1°C° 0 mm 4 mps 750 mmHg 38%
17:00 -1°C° 0 mm 3 mps 750 mmHg 43%
18:00 -1°C° 0 mm 3 mps 750 mmHg 47%
19:00 -1°C° 0 mm 3 mps 750 mmHg 48%
20:00 -2°C° 0 mm 4 mps 749 mmHg 48%
21:00 -2°C° 0 mm 4 mps 749 mmHg 48%
22:00 -2°C° 0 mm 4 mps 748 mmHg 49%
23:00 -2°C° 0 mm 4 mps 748 mmHg 50%

3 March, Wednesday

Time Temperature Precipitation Wind Pressure Humidity
00:00 -2°C° 0 mm 4 mps 747 mmHg 51%
01:00 -2°C° 0 mm 4 mps 747 mmHg 52%
02:00 -2°C° 0 mm 4 mps 747 mmHg 53%
03:00 -2°C° 0 mm 4 mps 746 mmHg 54%
04:00 -2°C° 0 mm 4 mps 746 mmHg 56%
05:00 -2°C° 0 mm 4 mps 746 mmHg 59%
06:00 -2°C° 0 mm 4 mps 746 mmHg 62%
07:00 -1°C° 0 mm 4 mps 746 mmHg 61%
08:00 0°C° 0 mm 4 mps 746 mmHg 60%
09:00 +1°C° 0 mm 4 mps 746 mmHg 59%
10:00 +4°C° 0 mm 4 mps 746 mmHg 57%
11:00 +6°C° 0 mm 4 mps 746 mmHg 55%
12:00 +7°C° 0 mm 4 mps 746 mmHg 53%
13:00 +8°C° 0 mm 4 mps 745 mmHg 53%
14:00 +10°C° 0 mm 4 mps 745 mmHg 53%
15:00 +10°C° 0 mm 4 mps 745 mmHg 53%
16:00 +9°C° 0 mm 3 mps 745 mmHg 60%
17:00 +7°C° 0 mm 3 mps 745 mmHg 66%
18:00 +6°C° 0 mm 2 mps 746 mmHg 73%
19:00 +5°C° 0 mm 2 mps 746 mmHg 76%
20:00 +5°C° 0 mm 2 mps 746 mmHg 79%
21:00 +4°C° 0 mm 2 mps 746 mmHg 82%
22:00 +3°C° 0 mm 2 mps 746 mmHg 84%
23:00 +3°C° 0 mm 2 mps 747 mmHg 86%

4 March, Thursday

Time Temperature Precipitation Wind Pressure Humidity
00:00 +3°C° 0 mm 1 mps 747 mmHg 88%
01:00 +3°C° 0 mm 1 mps 747 mmHg 90%
02:00 +2°C° 0 mm 1 mps 747 mmHg 91%
03:00 +2°C° 0 mm 1 mps 747 mmHg 93%
04:00 +2°C° 0 mm 1 mps 747 mmHg 94%
05:00 +1°C° 0 mm 1 mps 748 mmHg 94%
06:00 -1°C° 0 mm 2 mps 748 mmHg 94%
07:00 +1°C° 0 mm 2 mps 748 mmHg 89%
08:00 +2°C° 0 mm 2 mps 749 mmHg 83%
09:00 +3°C° 0 mm 2 mps 749 mmHg 78%
10:00 +4°C° 0 mm 2 mps 749 mmHg 72%
11:00 +6°C° 0 mm 1 mps 749 mmHg 65%
12:00 +8°C° 0 mm 1 mps 749 mmHg 59%
13:00 +8°C° 0 mm 1 mps 749 mmHg 55%
14:00 +8°C° 0 mm 1 mps 749 mmHg 52%
15:00 +9°C° 0 mm 1 mps 749 mmHg 48%
16:00 +8°C° 0 mm 1 mps 749 mmHg 54%
17:00 +6°C° 0 mm 2 mps 749 mmHg 59%
18:00 +5°C° 0 mm 2 mps 750 mmHg 65%
19:00 +4°C° 0 mm 2 mps 750 mmHg 70%
20:00 +3°C° 0 mm 2 mps 750 mmHg 76%
21:00 +1°C° 0 mm 3 mps 750 mmHg 82%
22:00 +1°C° 0 mm 2 mps 750 mmHg 83%
23:00 -1°C° 0 mm 2 mps 750 mmHg 84%
Show more